Regional Weather Roundup
Issued by NWS

Home | Current Version | Previous Version | Text Only | Print | Product List | Glossary Off
Versions: 1 2 3 4 5 6 7 8 9 10 11 12 13 14 15 16 17 18 19 20 21 22 23 24 25 26 27 28 29 30 31 32 33 34 35 36 37 38 39 40 41 42 43 44 45 46 47 48 49 50

823
ASUS45 KABQ 032310
RWRNM
NEW MEXICO REGIONAL WEATHER ROUNDUP
NATIONAL WEATHER SERVICE ALBUQUERQUE NM
400 PM MST SAT DEC 03 2016

NOTE: "FAIR" MEANS FEW OR NO CLOUDS BELOW 12,000 FEET AGL WITH NO
       SIGNIFICANT WEATHER OR OBSTRUCTIONS TO VISION.

      THIS PRODUCT IS RELEASED AS TWO VERSIONS.  ONE VERSION NEAR
      THE TOP OF THE HOUR CONTAINING PRELIMINARY DATA FROM ALBUQUERQUE
      AND OTHER STATIONS.  A FINAL VERSION WITH ADDITIONAL DATA IS
      ISSUED ABOUT 10 MINUTES AFTER THE HOUR.

NMZ501-503-504-510>518-040000-
NORTHWEST PLATEAU/NORTHCENTRAL MOUNTAINS

CITY           SKY/WX    TMP DP  RH WIND       PRES   REMARKS
FARMINGTON     FAIR      40  21  46 W20       30.05S WCI  30
LOS ALAMOS     FAIR      40  23  49 CALM      29.98S
SANTA FE       FAIR      45  23  42 N10       29.95S
TAOS           FAIR      34  18  51 N12       30.00R WCI  25
ANGEL FIRE     FAIR      32  16  52 W10       29.97S WCI  24

$$
NMZ402-403-502-505>509-040000-
WESTCENTRAL MOUNTAINS/SOUTHWEST MOUNTAINS

CITY           SKY/WX    TMP DP  RH WIND       PRES   REMARKS
GALLUP         FAIR      41  25  53 N12       30.05R
GRANTS         FAIR      40  24  53 N13       30.03F WCI  33
SILVER CITY    CLOUDY    46  38  74 SW8       29.96R

$$
NMZ407-409-411-412-040000-
SOUTHERN DESERTS

CITY           SKY/WX    TMP DP  RH WIND       PRES   REMARKS
DEMING         CLOUDY    45  37  73 S3        29.95R
LAS CRUCES     CLOUDY    48  34  59 N9        29.95S
HOLLOMAN AFB   CLOUDY    46  39  77 S12       29.99R
T OR C         FAIR      49  30  48 NE12      29.95R

$$
NMZ519>523-040000-
CENTRAL VALLEYS/CENTRAL HIGHLANDS

CITY           SKY/WX    TMP DP  RH WIND       PRES   REMARKS
ALBUQUERQUE    FAIR      48  27  44 NW6       29.97F
DOUBLE EAGLE   PTCLDY    45  25  45 NW15      29.99S
MORIARTY ARPT  FAIR      46  23  41 W7        29.98R
CLINES CORNERS FAIR      41  26  55 W12       29.97R
BELEN          FAIR      47  29  50 W5        29.98S
SOCORRO        FAIR      46  30  52 N12       29.98F

$$
NMZ524>526-539-540-040000-
SOUTHCENTRAL MOUNTAINS

CITY           SKY/WX    TMP DP  RH WIND       PRES   REMARKS
RUIDOSO          N/A     34  32  93 CALM      29.95F

$$
NMZ527>531-040000-
NORTHEAST HIGHLANDS/NORTHEAST PLAINS

CITY           SKY/WX    TMP DP  RH WIND       PRES   REMARKS
LAS VEGAS      FAIR      42  27  55 S12       29.91S
RATON          FAIR      39  26  59 N5        29.92R
CLAYTON        MOCLDY    38  34  85 S21       29.91F WCI  28

$$
NMZ532>537-040000-
EASTCENTRAL PLAINS

CITY           SKY/WX    TMP DP  RH WIND       PRES   REMARKS
TUCUMCARI      FAIR      41  35  79 S5        29.95F
CANNON AFB     CLOUDY    38  38 100 SW3       29.99R
CLOVIS AIRPORT CLOUDY    37  34  87 CALM      29.99R

$$
NMZ028-029-538-040000-
SOUTHEAST PLAINS

CITY           SKY/WX    TMP DP  RH WIND       PRES   REMARKS
ROSWELL        CLOUDY    40  34  79 N5        29.98F
ARTESIA        MOCLDY    39  39 100 N6        30.00S WCI  35
CARLSBAD       LGT RAIN  38  38 100 NW8       29.99S WCI  32
HOBBS          RAIN      39  39 100 N6        29.99S FOG     WCI  35


$$




USA.gov is the U.S. government's official web portal to all federal, state and local government web resources and services.